Total_Precipitation_Accumulation
0.08 0.05 0.20 0.31 0.24 0.10 0.04 0.03 0.06 0.06 0.18 0.26 0.23 0.24 0.26 0.19 0.12 0.12 0.04 0.00 0.00 0.00
0.17 0.10 0.13 0.26 0.36 0.29 0.15 0.09 0.07 0.10 0.10 0.24 0.16 0.13 0.14 0.13 0.06 0.06 0.04 0.02 0.01 0.01
0.20 0.31 0.23 0.24 0.29 0.34 0.19 0.17 0.16 0.16 0.18 0.14 0.25 0.08 0.07 0.07 0.04 0.02 0.03 0.03 0.01 0.01
0.16 0.29 0.48 0.61 0.38 0.31 0.25 0.35 0.31 0.22 0.22 0.16 0.13 0.12 0.04 0.03 0.02 0.02 0.02 0.02 0.01 0.00
0.24 0.29 0.35 0.48 0.56 0.29 0.40 0.48 0.41 0.38 0.31 0.28 0.19 0.09 0.07 0.04 0.01 0.00 0.00 0.00 0.00 0.00
0.24 0.29 0.33 0.37 0.43 0.37 0.34 0.33 0.33 0.39 0.40 0.35 0.33 0.20 0.09 0.08 0.02 0.00 0.00 0.00 0.00 0.00
0.27 0.34 0.43 0.42 0.38 0.33 0.33 0.27 0.25 0.28 0.27 0.28 0.24 0.18 0.13 0.06 0.04 0.02 0.00 0.00 0.00 0.00
0.32 0.27 0.36 0.33 0.38 0.31 0.29 0.25 0.21 0.24 0.27 0.22 0.21 0.12 0.06 0.04 0.01 0.00 0.00 0.00 0.00 0.00
0.19 0.24 0.40 0.38 0.36 0.35 0.31 0.22 0.18 0.21 0.22 0.22 0.22 0.13 0.05 0.02 0.01 0.01 0.00 0.01 0.00 0.00
0.30 0.25 0.40 0.40 0.46 0.38 0.34 0.30 0.22 0.22 0.22 0.17 0.16 0.14 0.11 0.10 0.10 0.09 0.08 0.06 0.05 0.05
0.07 0.08 0.29 0.28 0.31 0.36 0.37 0.28 0.26 0.26 0.24 0.24 0.23 0.21 0.22 0.22 0.19 0.19 0.17 0.14 0.13 0.13
0.00 0.00 0.00 0.02 0.06 0.13 0.30 0.40 0.39 0.31 0.26 0.28 0.29 0.33 0.34 0.30 0.27 0.27 0.25 0.21 0.19 0.19
0.00 0.00 0.00 0.00 0.01 0.04 0.08 0.14 0.17 0.20 0.24 0.31 0.31 0.34 0.32 0.25 0.19 0.22 0.22 0.18 0.16 0.19
0.00 0.00 0.00 0.00 0.00 0.01 0.03 0.04 0.06 0.06 0.07 0.07 0.14 0.14 0.17 0.20 0.15 0.11 0.15 0.12 0.11 0.09